User: anonymous   Login
Location: Hamilton
(37.7830°S, 175.2830°E)
Time: 13:43:14
(UTC+13:00)
Language:

SL-16 R/B - Orbit

View from above orbital plane
View from above orbital plane
View from above satellite
View from above satellite

Ground track
Ground track

The orbit data is extracted from the following two-line orbital elements,

1 31793U 07029B   19077.57476956 -.00000106 +00000-0 -30188-4 0  9997
2 31793 070.9735 126.0900 0002732 263.7439 248.4590 14.14406808605089
Epoch (UTC): 18 March 2019 13:47:40
Eccentricity: 0.0002732
inclination: 70.9735°
perigee height: 842 km
apogee height: 846 km
right ascension of ascending node: 126.0900°
argument of perigee: 263.7439°
revolutions per day: 14.14406808
mean anomaly at epoch: 248.4590°
orbit number at epoch: 60508

The dashed part of the orbit path shows where the satellite is in the earth's shadow,  

DLR